Location: Unspecified
(0.0000°N, 0.0000°E)
Time: 01:31:15
(UTC+00:00)

S-56A Canister/Altair - Visible Passes

Search period start: 02 June 2015 00:00
Search period end: 12 June 2015 00:00
Orbit: 636 x 2499 km, 38.9° (Epoch: 31 May)

Date Brightness Start Highest point End Pass type
(mag) Time Alt. Az. Time Alt. Az. Time Alt. Az.
02 Jun 10.0 18:36:20 10° SW 18:49:40 86° SE 19:04:57 10° NE visible
02 Jun 11.1 20:44:10 10° W 20:57:16 35° NW 21:09:34 10° NNE visible
03 Jun 9.9 05:29:45 10° NNW 05:34:27 24° NNE 05:38:23 10° E visible
03 Jun 9.9 18:03:46 10° SW 18:16:28 78° SE 18:31:46 10° NE visible
03 Jun 11.0 20:10:42 10° WSW 20:23:56 40° NW 20:37:02 10° NNE visible
03 Jun 11.8 22:28:19 10° NW 22:33:12 12° NNW 22:36:42 10° NNW visible
04 Jun 10.2 04:57:29 10° NNW 05:02:06 21° NNE 05:05:58 10° E visible
04 Jun 10.9 19:37:26 10° WSW 19:50:36 45° NW 20:04:22 10° NNE visible
04 Jun 11.8 21:52:25 10° WNW 21:59:45 14° NNW 22:05:39 10° N visible
05 Jun 10.4 04:25:10 10° N 04:29:39 18° NNE 04:33:29 10° ENE visible
05 Jun 10.7 19:04:21 10° WSW 19:17:17 51° NW 19:31:34 10° NNE visible
05 Jun 11.8 21:17:24 10° WNW 21:26:17 17° NNW 21:33:53 10° N visible
06 Jun 10.6 03:52:47 10° N 03:57:08 16° NNE 04:00:54 10° ENE visible
06 Jun 10.6 18:31:27 10° WSW 18:44:00 57° NW 18:58:40 10° NE visible
06 Jun 11.8 20:42:55 10° WNW 20:52:49 19° NNW 21:01:46 10° N visible
07 Jun 10.7 03:20:23 10° N 03:24:31 15° NNE 03:28:14 10° ENE visible
07 Jun 7.7 05:23:18 10° NW 05:29:55 86° NE 05:34:44 10° SE visible
07 Jun 10.5 17:58:42 10° WSW 18:10:45 63° NW 18:25:39 10° NE visible
07 Jun 11.7 20:08:48 10° WNW 20:19:21 22° NNW 20:29:24 10° NNE visible
08 Jun 10.9 02:47:57 10° N 02:51:50 14° NNE 02:55:26 10° NE visible
08 Jun 8.1 04:50:34 10° NW 04:57:42 69° NE 05:02:44 10° ESE visible
08 Jun 11.7 19:35:01 10° W 19:45:54 25° NNW 19:56:52 10° NNE visible
09 Jun 11.1 02:15:29 10° N 02:19:02 13° NNE 02:22:30 10° NE visible
09 Jun 8.6 04:17:47 10° NW 04:25:25 57° NE 04:30:42 10° ESE visible
09 Jun 11.6 19:01:30 10° W 19:12:29 28° NNW 19:24:11 10° NNE visible
10 Jun 11.2 01:43:00 10° N 01:46:09 12° NNE 01:49:23 10° NE visible
10 Jun 9.0 03:44:58 10° NW 03:53:03 48° NE 03:58:35 10° ESE visible
10 Jun 11.5 18:28:14 10° W 18:39:07 31° NNW 18:51:23 10° NNE visible
11 Jun 11.3 01:10:36 10° N 01:13:11 11° NNE 01:16:01 10° NE visible
11 Jun 9.3 03:12:06 10° NNW 03:20:34 41° NE 03:26:25 10° ESE visible
11 Jun 8.6 05:18:45 10° WNW 05:24:44 30° SW 05:29:12 10° SSE visible
11 Jun 12.1 20:11:21 10° NW 20:15:58 11° NNW 20:19:37 10° N visible
